Regional Weather Roundup
Issued by NWS

Home | Current Version | Previous Version | Graphics & Text | Print | Product List | Glossary On
Versions: 1 2 3 4 5 6 7 8 9 10 11 12 13 14 15 16 17 18 19 20 21 22 23 24 25 26 27 28 29 30 31 32 33 34 35 36 37 38 39 40 41 42 43 44 45 46 47 48 49 50
384
ASUS44 KLIX 221710
RWRLA
LOUISIANA WEATHER ROUNDUP
NATIONAL WEATHER SERVICE NEW ORLEANS LA
1200 PM CDT WED OCT 22 2014

NOTE: "FAIR" INDICATES FEW OR NO CLOUDS BELOW 12,000 FEET WITH NO
      SIGNIFICANT WEATHER AND/OR OBSTRUCTIONS TO VISIBILITY.
      SKY/WX - SKY CONDITION AND SIGNIFICANT WEATHER.
      TMP - AIR TEMPERATURE.    DP   - DEWPOINT TEMPERATURE.
      RH  - RELATIVE HUMIDITY.  PRES - PRESSURE.
      HX  - HEAT INDEX.         WCI  - WIND CHILL INDEX.

*  THESE STATIONS ARE NOT NWS OR FAA STATIONS AND ARE NOT UNDER
   NWS QUALITY CONTROL.

LAZ040-048-061>063-065-066-069-221800-
SOUTHEAST LOUISIANA

CITY           SKY/WX    TMP DP  RH WIND       PRES   REMARKS
N.O. AUDUBON     N/A     80  56  43 MISG        N/A
N.O. INTL ARPT SUNNY     76  55  48 NE15      30.10S
N.O. LAKEFRONT SUNNY     76  56  49 NE14      30.10F
N.O. DOWNTOWN* FAIR      77  54  44 NE5       30.10F
SLIDELL        SUNNY     75  53  46 NE7       30.10S
BATON ROUGE    SUNNY     77  54  44 E9        30.11F
BOOTHVILLE     SUNNY     77  63  61 NE9G17    30.08F
BELLE CHASSE   SUNNY     77  55  46 E14       30.09S
BOGALUSA*        N/A     77  48  35 E8        30.13S
NEW ROADS*     FAIR      75  55  48 NE12      30.12F
GONZALES*      FAIR      76  55  48 E7        30.10F
HAMMOND*       SUNNY     77  50  38 NE8       30.12F
HOUMA*         SUNNY     79  55  44 NE14      30.09S
PORT FOURCHON* SUNNY     77  59  53 NE17      30.10F

$$

LAZ041-044-053-054-221800-
SOUTHWEST LOUISIANA

CITY           SKY/WX    TMP DP  RH WIND       PRES   REMARKS
LAKE CHARLES   SUNNY     78  58  49 E12       30.11S
LAFAYETTE      SUNNY     76  56  49 E8        30.11S
PATTERSON      SUNNY     79  61  53 E13G18    30.11F
SALT POINT       N/A    N/A N/A N/A VRB6      30.07F
NEW IBERIA     LGT RAIN  78  58  49 NE12      30.10F
CHENAULT AIRPK MOSUNNY   75  61  60 NE12      30.12S

$$

LAZ027-028-221800-
CENTRAL LOUISIANA

CITY           SKY/WX    TMP DP  RH WIND       PRES   REMARKS
FORT POLK      MOSUNNY   75  56  52 VRB7G18   30.13F
ALEXANDRIA INT SUNNY     75  54  47 E9        30.13F
ALEXANDRIA     SUNNY     75  54  47 E6        30.14F

$$

LAZ001-002-221800-
NORTHWEST LOUISIANA

CITY           SKY/WX    TMP DP  RH WIND       PRES   REMARKS
SHREVEPORT     SUNNY     75  51  43 E7        30.17F
BARKSDALE AFB  SUNNY     75  51  42 E6        30.18F
DTN SHREVEPORT SUNNY     74  51  44 E8        30.18S

$$

LAZ014-016-221800-
NORTHEAST LOUISIANA

CITY           SKY/WX    TMP DP  RH WIND       PRES   REMARKS
MONROE         SUNNY     74  53  48 VRB6      30.19S
TALLULAH       SUNNY     74  51  44 NE10      30.17S

$$




USA.gov is the U.S. government's official web portal to all federal, state and local government web resources and services.